DW0494 Weather Reports


Display with metric or nautical units.
time (UTC)temp
F
wind
direction
speed
MPH
gust
MPH
rain 1hr
in
rain 24hr
in
rain mn
in
humidity
%
barometer
mb
20260902204404 71 33 4.0 15.0 0.10 0.15 0.15 84 1019.7
20260902203904 70 21 8.0 22.0 0.10 0.15 0.15 84 1019.4
20260902203404 70 24 10.0 22.0 0.10 0.15 0.15 86 1019.3
20260902202903 71 17 9.0 18.0 0.09 0.14 0.14 86 1019.2
20260902202403 74 30 7.0 12.0 0.03 0.08 0.08 82 1019.6
20260902201903 77 14 5.0 8.0 0.01 0.06 0.06 83 1019.8
20260902200911 78 306 0.0 1.0 0.00 0.05 0.05 81 1019.7
20260902200404 78 226 0.0 1.0 0.00 0.05 0.05 78 1019.3
20260902195904 78 49 0.0 3.0 0.00 0.05 0.05 78 1019.1
20260902194904 78 48 1.0 3.0 0.00 0.05 0.05 78 1019.1
20260902194404 78 41 1.0 3.0 0.00 0.05 0.05 78 1019.2
20260902193903 78 32 1.0 3.0 0.00 0.05 0.05 79 1019.2
20260902193403 78 35 1.0 3.0 0.00 0.05 0.05 79 1019.2
20260902192903 78 15 1.0 3.0 0.00 0.05 0.05 80 1019.3
20260902192403 78 37 1.0 2.0 0.00 0.05 0.05 79 1019.2
20260902190904 80 32 0.0 1.0 0.00 0.05 0.05 72 1019.1
20260902190404 80 30 0.0 0.0 0.00 0.05 0.05 71 1019.3
20260902185903 80 30 0.0 0.0 0.00 0.05 0.05 71 1019.2
20260902185403 80 30 0.0 0.0 0.00 0.05 0.05 71 1019.2
20260902184404 80 30 0.0 2.0 0.00 0.05 0.05 71 1019.1
20260902183904 80 30 0.0 2.0 0.00 0.05 0.05 71 1019.1
20260902183404 80 87 0.0 1.0 0.00 0.05 0.05 71 1019.2
20260902182903 80 110 0.0 1.0 0.00 0.05 0.05 71 1019.1
20260902182403 80 180 0.0 1.0 0.00 0.05 0.05 71 1019.1
20260902181904 80 186 0.0 1.0 0.00 0.05 0.05 71 1019.1
20260902181404 80 186 0.0 1.0 0.00 0.05 0.05 70 1019.0
20260902180404 80 161 0.0 1.0 0.00 0.05 0.05 70 1018.8
20260902175903 80 167 0.0 1.0 0.00 0.05 0.05 70 1018.8
20260902174904 81 198 0.0 1.0 0.00 0.05 0.05 69 1018.7
20260902174404 81 133 0.0 3.0 0.00 0.05 0.05 69 1018.6
20260902173403 81 335 0.0 3.0 0.00 0.05 0.05 69 1018.6
20260902172904 82 117 0.0 1.0 0.00 0.05 0.05 68 1018.6
20260902171904 82 128 0.0 2.0 0.00 0.05 0.05 67 1018.6
20260902171404 82 112 0.0 3.0 0.00 0.05 0.05 66 1018.6
20260902170903 82 160 0.0 3.0 0.00 0.05 0.05 66 1018.5
20260902170403 82 209 0.0 3.0 0.00 0.05 0.05 66 1018.5
20260902165904 83 208 1.0 2.0 0.00 0.05 0.05 66 1018.6
20260902165404 83 147 0.0 2.0 0.00 0.05 0.05 65 1018.6
20260902164903 83 149 0.0 1.0 0.00 0.05 0.05 65 1018.7
20260902164404 83 192 0.0 3.0 0.00 0.05 0.05 64 1018.6
20260902163904 84 230 0.0 3.0 0.00 0.05 0.05 63 1018.5
20260902162403 85 110 1.0 3.0 0.00 0.05 0.05 60 1018.5
20260902160904 86 193 2.0 6.0 0.00 0.05 0.05 59 1018.4
20260902160404 86 177 1.0 6.0 0.00 0.05 0.05 59 1018.5
20260902155404 87 196 1.0 7.0 0.00 0.05 0.05 58 1018.7
20260902154904 87 213 3.0 8.0 0.00 0.05 0.05 58 1018.7
20260902153904 88 215 2.0 7.0 0.00 0.05 0.05 58 1018.6
20260902153403 88 205 1.0 9.0 0.00 0.05 0.05 56 1018.4
20260902152903 89 200 3.0 9.0 0.00 0.05 0.05 55 1018.4
20260902152403 90 223 5.0 10.0 0.00 0.05 0.05 54 1018.3
20260902151903 90 197 3.0 10.0 0.00 0.05 0.05 52 1018.1
20260902151404 91 202 2.0 12.0 0.00 0.05 0.05 52 1018.1
20260902150904 91 151 1.0 12.0 0.00 0.05 0.05 51 1018.3
20260902145904 93 226 1.0 8.0 0.00 0.05 0.05 49 1018.2
20260902144404 93 222 5.0 12.0 0.00 0.05 0.05 46 1018.3
20260902143904 93 206 4.0 9.0 0.00 0.05 0.05 45 1018.4
20260902142904 93 200 3.0 9.0 0.00 0.05 0.05 45 1018.3
20260902141903 93 227 1.0 3.0 0.00 0.05 0.05 44 1018.4
20260902141403 93 213 1.0 5.0 0.00 0.05 0.05 44 1018.3
20260902140903 94 208 2.0 7.0 0.00 0.05 0.05 44 1018.5
20260902140403 94 209 3.0 7.0 0.00 0.05 0.05 46 1018.6
20260902135903 95 206 3.0 7.0 0.00 0.05 0.05 42 1018.6
20260902135404 95 229 2.0 7.0 0.00 0.05 0.05 42 1018.7
20260902134903 96 211 1.0 5.0 0.00 0.05 0.05 43 1018.8
20260902134403 95 189 2.0 8.0 0.00 0.05 0.05 43 1018.9
20260902133903 95 117 2.0 8.0 0.00 0.05 0.05 44 1019.0
20260902132903 95 129 1.0 9.0 0.00 0.05 0.05 45 1019.0
20260902132403 95 221 4.0 9.0 0.00 0.05 0.05 45 1019.1
20260902130903 96 215 5.0 10.0 0.00 0.05 0.05 44 1019.2
20260902130403 95 202 3.0 10.0 0.00 0.05 0.05 46 1019.2
20260902125904 95 210 5.0 10.0 0.00 0.05 0.05 45 1019.2
20260902125403 95 222 4.0 8.0 0.00 0.05 0.05 45 1019.2
20260902124903 95 213 3.0 10.0 0.00 0.05 0.05 46 1019.4
20260902123904 94 214 3.0 10.0 0.00 0.05 0.05 48 1019.5
20260902123404 94 232 3.0 10.0 0.00 0.05 0.05 48 1019.5
20260902122903 94 212 3.0 10.0 0.00 0.05 0.05 50 1019.7
20260902122403 94 243 2.0 10.0 0.00 0.05 0.05 50 1019.8
20260902121404 94 222 2.0 8.0 0.00 0.05 0.05 51 1019.9
20260902120904 93 224 2.0 8.0 0.00 0.05 0.05 54 1020.0
20260902120404 93 243 3.0 8.0 0.00 0.05 0.05 53 1020.1
20260902115904 94 209 2.0 6.0 0.00 0.05 0.05 53 1020.3
20260902115404 94 216 2.0 6.0 0.00 0.05 0.05 52 1020.4
20260902114904 93 190 2.0 6.0 0.00 0.05 0.05 55 1020.5
20260902113903 93 218 2.0 6.0 0.00 0.05 0.05 56 1020.7
20260902113403 93 226 2.0 6.0 0.00 0.05 0.05 56 1020.7
20260902112904 93 203 3.0 7.0 0.00 0.05 0.05 57 1020.8
20260902112403 93 193 4.0 7.0 0.00 0.05 0.05 56 1020.9
20260902111903 93 250 3.0 6.0 0.00 0.05 0.05 56 1020.9
20260902111404 93 204 2.0 7.0 0.00 0.05 0.05 56 1020.9
20260902110904 93 213 3.0 8.0 0.00 0.05 0.05 57 1021.0
20260902110404 93 213 3.0 8.0 0.00 0.05 0.05 56 1021.0
20260902105904 92 200 3.0 8.0 0.00 0.05 0.05 57 1021.1
20260902105404 92 234 4.0 8.0 0.00 0.05 0.05 55 1021.1
20260902104904 93 235 3.0 8.0 0.00 0.05 0.05 53 1021.2
20260902104404 92 216 2.0 9.0 0.00 0.05 0.05 54 1021.2
20260902103904 93 206 3.0 9.0 0.00 0.05 0.05 55 1021.2
20260902103403 94 219 4.0 9.0 0.00 0.05 0.05 53 1021.2
20260902102904 93 205 2.0 6.0 0.00 0.05 0.05 56 1021.2
20260902101904 93 212 4.0 9.0 0.00 0.05 0.05 55 1021.2
20260902100404 94 208 1.0 5.0 0.00 0.05 0.05 53 1021.2
20260902095404 93 257 1.0 5.0 0.00 0.05 0.05 52 1021.3
20260902094904 93 205 2.0 6.0 0.00 0.05 0.05 54 1021.3
20260902093904 92 219 2.0 6.0 0.00 0.05 0.05 54 1021.4
20260902093403 92 172 2.0 6.0 0.00 0.05 0.05 55 1021.4
20260902092403 92 115 1.0 7.0 0.00 0.05 0.05 56 1021.5
20260902091903 91 187 3.0 7.0 0.00 0.05 0.05 56 1021.5
20260902091403 91 199 2.0 5.0 0.00 0.05 0.05 61 1021.6
20260902090903 91 193 1.0 5.0 0.00 0.05 0.05 62 1021.5
20260902090403 91 223 2.0 5.0 0.00 0.05 0.05 63 1021.6
20260902084403 89 227 2.0 3.0 0.00 0.05 0.05 66 1021.6
20260902083904 89 168 1.0 3.0 0.00 0.05 0.05 67 1021.5
20260902083404 89 202 0.0 3.0 0.00 0.05 0.05 68 1021.5
20260902082904 89 223 1.0 5.0 0.00 0.05 0.05 67 1021.5
20260902082404 89 202 2.0 5.0 0.00 0.05 0.05 68 1021.5
20260902081403 88 147 2.0 5.0 0.00 0.05 0.05 68 1021.5
20260902080903 88 230 1.0 3.0 0.00 0.05 0.05 69 1021.4
20260902080403 88 144 0.0 3.0 0.00 0.05 0.05 69 1021.4
20260902075903 88 188 2.0 3.0 0.00 0.05 0.05 69 1021.5
20260902075404 88 181 1.0 3.0 0.00 0.05 0.05 70 1021.5
20260902074903 87 208 2.0 3.0 0.00 0.05 0.05 70 1021.5
20260902073903 88 234 0.0 1.0 0.00 0.05 0.05 68 1021.4
20260902073404 80 221 0.0 1.0 0.00 0.05 0.05 89 1021.4
20260902072904 73 0 0.0 0.0 0.00 0.05 0.05 90 1021.3
20260902072404 73 0 0.0 0.0 0.00 0.05 0.05 90 1021.3
20260902071903 73 0 0.0 0.0 0.00 0.05 0.05 90 1021.4
20260902071404 73 0 0.0 0.0 0.00 0.05 0.05 90 1021.4
20260902070903 73 0 0.0 0.0 0.00 0.05 0.05 90 1021.3
20260902070404 73 0 0.0 0.0 0.00 0.05 0.05 90 1021.3
20260902065904 73 0 0.0 0.0 0.00 0.05 0.05 90 1021.3
20260902064904 73 0 0.0 0.0 0.00 0.05 0.05 90 1021.3
20260902064404 73 0 0.0 0.0 0.00 0.05 0.05 90 1021.2
20260902063904 73 0 0.0 0.0 0.00 0.05 0.05 90 1021.2
20260902063404 73 0 0.0 0.0 0.00 0.05 0.05 90 1021.2
20260902062903 73 0 0.0 0.0 0.00 0.05 0.05 90 1021.3
20260902062404 73 0 0.0 0.0 0.00 0.05 0.05 90 1021.3
20260902061904 73 0 0.0 0.0 0.00 0.05 0.05 90 1021.3
20260902061405 73 0 0.0 0.0 0.00 0.05 0.05 90 1021.2
20260902060904 73 0 0.0 0.0 0.00 0.05 0.05 90 1021.2
20260902060404 73 0 0.0 0.0 0.00 0.05 0.05 90 1021.3
20260902055904 73 0 0.0 0.0 0.00 0.05 0.05 90 1021.2
20260902055403 73 0 0.0 0.0 0.00 0.05 0.05 90 1021.2
20260902054904 73 0 0.0 0.0 0.00 0.05 0.05 90 1021.1
20260902053904 73 0 0.0 0.0 0.00 0.05 0.05 90 1021.2
20260902053404 73 0 0.0 0.0 0.00 0.05 0.05 90 1021.3
20260902052404 73 0 0.0 0.0 0.00 0.05 0.05 90 1021.2
20260902051904 73 0 0.0 0.0 0.00 0.05 0.05 90 1021.2
20260902050904 73 0 0.0 0.0 0.00 0.05 0.05 90 1021.1
20260902050404 73 0 0.0 0.0 0.00 0.05 0.05 90 1021.1
20260902045904 73 0 0.0 0.0 0.00 0.05 0.05 90 1021.1
20260902044904 73 0 0.0 0.0 0.00 0.05 0.05 90 1021.1
20260902044404 73 0 0.0 0.0 0.00 0.05 0.05 90 1021.1
20260902043903 73 0 0.0 0.0 0.00 0.05 0.05 90 1021.0
20260902043403 73 0 0.0 0.0 0.00 0.05 0.05 90 1020.9
20260902042903 73 0 0.0 0.0 0.00 0.05 0.05 90 1020.9
20260902042403 73 0 0.0 0.0 0.00 0.05 0.05 90 1020.8
20260902041904 73 0 0.0 0.0 0.00 0.05 0.05 90 1020.9
20260902040904 73 0 0.0 0.0 0.00 0.05 0.05 90 1020.9
20260902040404 73 0 0.0 0.0 0.00 0.05 0.05 90 1020.8
20260902035903 73 0 0.0 0.0 0.00 0.05 0.05 90 1020.7
20260902035404 73 0 0.0 0.0 0.00 0.05 0.05 90 1020.8
20260902034904 73 0 0.0 0.0 0.00 0.05 0.05 90 1020.7
20260902034404 73 0 0.0 0.0 0.00 0.05 0.05 90 1020.7
20260902033903 73 0 0.0 0.0 0.00 0.05 0.05 90 1020.6
20260902033403 73 2 0.0 0.0 0.00 0.05 0.05 90 1020.5
20260902032904 73 44 0.0 1.0 0.00 0.05 0.05 90 1020.5
20260902032404 73 44 0.0 1.0 0.00 0.05 0.05 90 1020.6
20260902031904 73 2 0.0 2.0 0.00 0.05 0.05 90 1020.5
20260902031404 73 356 0.0 3.0 0.00 0.05 0.05 90 1020.5
20260902030904 73 23 1.0 3.0 0.00 0.05 0.05 90 1020.5
20260902025904 73 16 1.0 3.0 0.00 0.05 0.05 90 1020.4
20260902025404 73 26 1.0 3.0 0.00 0.05 0.05 91 1020.5
20260902024904 73 11 0.0 1.0 0.00 0.05 0.05 90 1020.4
20260902024404 73 43 0.0 1.0 0.00 0.05 0.05 91 1020.4
20260902023403 73 18 0.0 2.0 0.01 0.05 0.05 90 1020.3
20260902022904 73 20 0.0 1.0 0.05 0.05 0.05 90 1020.4
20260902022404 73 21 0.0 2.0 0.05 0.05 0.05 90 1020.3
20260902021904 73 21 1.0 5.0 0.05 0.05 0.05 90 1020.3
20260902021404 73 298 0.0 5.0 0.05 0.05 0.05 90 1020.4
20260902015903 74 213 0.0 2.0 0.05 0.05 0.05 89 1020.1
20260902015404 74 137 0.0 6.0 0.05 0.05 0.05 88 1020.0
20260902014904 74 109 2.0 10.0 0.05 0.05 0.05 88 1020.0
20260902013903 75 38 5.0 12.0 0.05 0.05 0.05 86 1019.9
20260902013404 76 39 6.0 12.0 0.04 0.04 0.04 85 1019.8
20260902012404 78 26 1.0 6.0 0.00 0.00 0.00 77 1020.0
20260902011904 78 49 0.0 6.0 0.00 0.00 0.00 77 1020.0
20260902010903 78 55 0.0 3.0 0.00 0.00 0.00 78 1020.0
20260902010403 78 60 1.0 5.0 0.00 0.00 0.00 79 1020.1
20260902005904 78 23 2.0 5.0 0.00 0.00 0.00 79 1020.2
20260902004904 78 9 0.0 1.0 0.00 0.00 0.00 79 1020.2
20260902003904 77 240 0.0 0.0 0.00 0.00 0.00 80 1020.0
20260902003404 77 240 0.0 0.0 0.00 0.00 0.00 80 1019.9
20260902002404 77 255 0.0 1.0 0.00 0.00 0.00 80 1020.0
20260902001903 77 352 0.0 0.0 0.00 0.00 0.00 79 1020.0
20260902001403 77 352 0.0 0.0 0.00 0.00 0.00 78 1020.0
20260902000903 77 352 0.0 0.0 0.00 0.00 0.00 78 1020.0
20260902000403 77 352 0.0 0.0 0.00 0.00 0.00 78 1019.9
20260901235904 77 352 0.0 0.0 0.00 0.00 0.00 77 1019.9
20260901235404 78 352 0.0 0.0 0.00 0.00 0.00 77 1019.8
20260901234404 78 352 0.0 0.0 0.00 0.00 0.00 77 1019.8
20260901233903 78 352 0.0 2.0 0.00 0.00 0.00 77 1019.7
20260901233403 78 352 0.0 2.0 0.00 0.00 0.00 78 1019.7
20260901232904 78 321 0.0 0.0 0.00 0.00 0.00 78 1019.6
20260901231904 78 316 0.0 0.0 0.00 0.00 0.00 78 1019.6
20260901231404 78 316 0.0 0.0 0.00 0.00 0.00 78 1019.6
20260901230904 78 333 0.0 0.0 0.00 0.00 0.00 78 1019.6
20260901225403 78 333 0.0 0.0 0.00 0.00 0.00 79 1019.7
20260901224404 78 17 0.0 0.0 0.00 0.00 0.00 79 1019.6
20260901223904 78 17 0.0 0.0 0.00 0.00 0.00 79 1019.5
20260901223404 78 17 0.0 0.0 0.00 0.00 0.00 79 1019.5
20260901222904 78 17 0.0 0.0 0.00 0.00 0.00 79 1019.5
20260901221903 78 17 0.0 1.0 0.00 0.00 0.00 79 1019.5
20260901221404 78 17 0.0 1.0 0.00 0.00 0.00 78 1019.6
20260901220903 78 17 0.0 1.0 0.00 0.00 0.00 78 1019.5
20260901215903 78 16 0.0 1.0 0.00 0.00 0.00 78 1019.5
20260901215403 78 17 0.0 1.0 0.00 0.00 0.00 77 1019.6
20260901214404 78 35 0.0 1.0 0.00 0.00 0.00 77 1019.6
20260901213903 78 38 0.0 0.0 0.00 0.00 0.00 77 1019.6
20260901213404 78 38 0.0 0.0 0.00 0.00 0.00 77 1019.6
20260901212904 78 38 0.0 0.0 0.00 0.00 0.00 76 1019.5
20260901212404 78 38 0.0 0.0 0.00 0.00 0.00 76 1019.5
20260901211904 78 38 0.0 0.0 0.00 0.00 0.00 75 1019.4
20260901211404 78 38 0.0 0.0 0.00 0.00 0.00 75 1019.5
20260901210404 78 38 0.0 0.0 0.00 0.00 0.00 74 1019.4
20260901205903 78 38 0.0 0.0 0.00 0.00 0.00 74 1019.4
20260901205403 78 38 0.0 0.0 0.00 0.00 0.00 74 1019.3
20260901204904 78 38 0.0 0.0 0.00 0.00 0.00 74 1019.4